Location: Katwijk
(52.2000°N, 4.4170°E)
Time: 15:37:31
(UTC+02:00)

ISS - Visible Passes

Search period start: 27 May 2017 00:00
Search period end: 06 June 2017 00:00
Orbit: 402 x 408 km, 51.6° (Epoch: 27 May)

Date Brightness Start Highest point End Pass type
(mag) Time Alt. Az. Time Alt. Az. Time Alt. Az.
27 May -4.0 00:57:31 10° W 01:00:50 83° S 01:04:08 10° E visible
27 May -3.7 02:34:01 10° W 02:37:14 49° SSW 02:40:25 10° SE visible
27 May -2.1 04:11:16 10° WSW 04:13:11 15° SW 04:15:05 10° S visible
27 May -3.2 22:29:25 10° SW 22:32:29 36° SSE 22:35:34 10° E visible
28 May -3.9 00:05:29 10° W 00:08:48 80° S 00:12:06 10° E visible
28 May -3.9 01:41:58 10° W 01:45:15 64° SSW 01:47:26 19° ESE visible
28 May -2.0 03:18:46 10° W 03:19:58 17° WSW 03:19:58 17° WSW visible
28 May -3.9 23:13:28 10° WSW 23:16:46 70° SSE 23:20:03 10° E visible
29 May -4.0 00:49:55 10° W 00:53:13 76° S 00:56:01 14° ESE visible
29 May -2.7 02:26:30 10° W 02:28:37 27° WSW 02:28:37 27° WSW visible
29 May -3.9 23:57:51 10° W 00:01:10 83° S 00:04:28 10° E visible
30 May -3.5 01:34:22 10° W 01:37:32 44° SSW 01:37:45 43° S visible
30 May -3.9 23:05:47 10° W 23:09:05 82° S 23:12:24 10° E visible
31 May -3.8 00:42:16 10° W 00:45:31 59° SSW 00:47:04 27° SE visible
31 May -1.5 02:19:10 10° W 02:19:41 12° WSW 02:19:41 12° WSW visible
31 May -3.9 23:50:10 10° W 23:53:29 72° S 23:56:27 12° ESE visible
01 Jun -2.6 01:26:48 10° W 01:29:05 26° SW 01:29:05 26° SW visible
01 Jun -3.9 22:58:05 10° W 23:01:23 81° S 23:04:41 10° E visible
02 Jun -3.3 00:34:35 10° W 00:37:42 39° SSW 00:38:33 32° SSE visible
02 Jun -3.6 23:42:27 10° W 23:45:41 53° SSW 23:48:03 17° SE visible
03 Jun -1.7 01:19:31 10° WSW 01:20:41 15° WSW 01:20:41 15° WSW visible
03 Jun -3.8 22:50:19 10° W 22:53:36 68° SSW 22:56:53 10° ESE visible
04 Jun -2.5 00:27:01 10° W 00:29:45 24° SSW 00:30:12 23° SSW visible
04 Jun -3.0 23:34:43 10° W 23:37:46 34° SSW 23:39:46 17° SSE visible
05 Jun -3.4 22:42:31 10° W 22:45:43 47° SSW 22:48:54 10° SE visible
